Track STARLINK-3124 now! 10-day predictions STARLINK-3124 is classified as:
1 49456U 21104BA 22143.58334491 -.00008040 00000-0 -48750-3 0 9996 2 49456 53.2191 321.5919 0002403 27.0014 268.8209 15.08845548 30594